^^
Saratoga-Weather Station Historical Data
Daily Summary for September 10, 2020 Units:  English    Metric   Both
Daily Weekly Monthly Yearly Custom
  High: Low: Average:
Temperature: 76.6 °F 50.5 °F 62.8 °F
Dew Point: 52.2 °F 43.2 °F 46.6 °F
Humidity: 81% 32% 58%
Wind Speed: 6mph 0mph 0.9mph
Wind Gust: 8mph - -
Wind- - SSE
Pressure: 30.2 in 30.1 in -
Precipitation: 0 in    
Historical Graphs
 
 
Tabular Data for September 10, 2020
Time Temperature Dew Point Pressure Wind Wind Speed Wind Gust Humidity Rainfall Rate (Hourly) solar
00:03 61.3 °F 46.4 °F 30.2 in Calm   4 mph 58% 0 in 0 W/m2
00:08 61.3 °F 46.9 °F 30.2 in West 2.9 mph 4 mph 59% 0 in 0 W/m2
00:13 61.2 °F 46.8 °F 30.2 in Calm   1 mph 59% 0 in 0 W/m2
00:18 61 °F 46.6 °F 30.2 in WSW 0.9 mph 3 mph 59% 0 in 0 W/m2
00:23 60.4 °F 46.4 °F 30.2 in South 0.9 mph 1 mph 60% 0 in 0 W/m2
00:28 59.9 °F 46.8 °F 30.2 in South 0.9 mph 2 mph 62% 0 in 0 W/m2
00:33 59.4 °F 46.4 °F 30.2 in Calm   2 mph 62% 0 in 0 W/m2
00:38 58.8 °F 46.2 °F 30.2 in Calm   1 mph 63% 0 in 0 W/m2
00:43 58.5 °F 46.4 °F 30.2 in SW 2 mph 2 mph 64% 0 in 0 W/m2
00:48 58.5 °F 46.4 °F 30.2 in West 2 mph 2 mph 64% 0 in 0 W/m2
00:53 58.6 °F 46 °F 30.2 in SW 0.9 mph 2 mph 63% 0 in 0 W/m2
00:58 59.2 °F 46.2 °F 30.2 in West 2.9 mph 3 mph 62% 0 in 0 W/m2
01:03 59.5 °F 46 °F 30.2 in Calm   4 mph 61% 0 in 0 W/m2
01:08 59.9 °F 46.4 °F 30.2 in NNW 0.9 mph 3 mph 61% 0 in 0 W/m2
01:13 60.3 °F 46.4 °F 30.2 in WNW 0.9 mph 2 mph 60% 0 in 0 W/m2
01:18 60.3 °F 46.4 °F 30.2 in WSW 0.9 mph 1 mph 60% 0 in 0 W/m2
01:23 60.1 °F 46.2 °F 30.2 in West 0.9 mph 2 mph 60% 0 in 0 W/m2
01:28 59.9 °F 46.4 °F 30.2 in Calm   1 mph 61% 0 in 0 W/m2
01:34 59.5 °F 46 °F 30.2 in West 2 mph 2 mph 61% 0 in 0 W/m2
01:39 59.2 °F 46.2 °F 30.2 in Calm   1 mph 62% 0 in 0 W/m2
01:44 58.6 °F 46 °F 30.2 in Calm   1 mph 63% 0 in 0 W/m2
01:49 58.3 °F 46.2 °F 30.2 in West 0.9 mph 2 mph 64% 0 in 0 W/m2
01:54 57.9 °F 45.9 °F 30.2 in West 2 mph 2 mph 64% 0 in 0 W/m2
01:59 57.6 °F 45.9 °F 30.2 in West 0.9 mph 2 mph 65% 0 in 0 W/m2
02:04 57.4 °F 46 °F 30.2 in Calm   2 mph 66% 0 in 0 W/m2
02:09 57.2 °F 45.9 °F 30.2 in Calm   2 mph 66% 0 in 0 W/m2
02:14 57 °F 45.9 °F 30.2 in Calm   1 mph 66% 0 in 0 W/m2
02:19 57 °F 45.9 °F 30.2 in Calm   1 mph 66% 0 in 0 W/m2
02:24 57 °F 46.2 °F 30.2 in Calm   2 mph 67% 0 in 0 W/m2
02:29 56.8 °F 46 °F 30.2 in SW 0.9 mph 1 mph 67% 0 in 0 W/m2
02:34 56.7 °F 45.9 °F 30.2 in Calm   2 mph 67% 0 in 0 W/m2
02:39 56.5 °F 46 °F 30.2 in SW 0.9 mph 1 mph 68% 0 in 0 W/m2
02:44 56.1 °F 45.7 °F 30.2 in SW 0.9 mph 1 mph 68% 0 in 0 W/m2
02:49 55.9 °F 45.9 °F 30.2 in Calm   1 mph 69% 0 in 0 W/m2
02:54 55.8 °F 45.7 °F 30.2 in Calm     69% 0 in 0 W/m2
02:59 55.6 °F 46 °F 30.2 in Calm     70% 0 in 0 W/m2
03:04 55.2 °F 45.7 °F 30.2 in SW 0.9 mph 2 mph 70% 0 in 0 W/m2
03:09 55.4 °F 45.9 °F 30.2 in Calm   1 mph 70% 0 in 0 W/m2
03:14 55.4 °F 45.9 °F 30.2 in Calm   1 mph 70% 0 in 0 W/m2
03:19 55.2 °F 46 °F 30.2 in SE 0.9 mph 2 mph 71% 0 in 0 W/m2
03:24 55 °F 45.9 °F 30.2 in Calm     71% 0 in 0 W/m2
03:29 55 °F 45.9 °F 30.2 in Calm   2 mph 71% 0 in 0 W/m2
03:34 54.9 °F 46 °F 30.2 in North 0.9 mph 2 mph 72% 0 in 0 W/m2
03:39 54.9 °F 46 °F 30.2 in Calm   3 mph 72% 0 in 0 W/m2
03:44 54.9 °F 46 °F 30.2 in Calm   1 mph 72% 0 in 0 W/m2
03:49 54.9 °F 46 °F 30.2 in West 0.9 mph 1 mph 72% 0 in 0 W/m2
03:54 54.5 °F 45.7 °F 30.2 in West 0.9 mph 2 mph 72% 0 in 0 W/m2
03:59 54.1 °F 45.7 °F 30.2 in SW 0.9 mph 2 mph 73% 0 in 0 W/m2
04:05 54.1 °F 45.7 °F 30.2 in Calm   1 mph 73% 0 in 0 W/m2
04:10 54.1 °F 45.7 °F 30.2 in Calm     73% 0 in 0 W/m2
04:15 54.1 °F 45.7 °F 30.2 in SW 0.9 mph 1 mph 73% 0 in 0 W/m2
04:20 54 °F 45.5 °F 30.2 in Calm   1 mph 73% 0 in 0 W/m2
04:25 54.1 °F 45.7 °F 30.2 in Calm   2 mph 73% 0 in 0 W/m2
04:30 54.1 °F 45.7 °F 30.2 in Calm   1 mph 73% 0 in 0 W/m2
04:35 54.1 °F 45.7 °F 30.2 in Calm     73% 0 in 0 W/m2
04:40 54 °F 45.5 °F 30.2 in Calm   1 mph 73% 0 in 0 W/m2
04:45 54 °F 45.5 °F 30.2 in Calm     73% 0 in 0 W/m2
04:50 53.8 °F 45.7 °F 30.2 in Calm   1 mph 74% 0 in 0 W/m2
04:55 53.8 °F 45.7 °F 30.2 in Calm   1 mph 74% 0 in 0 W/m2
05:00 53.4 °F 45.3 °F 30.2 in Calm     74% 0 in 0 W/m2
05:05 53.2 °F 45.5 °F 30.2 in SW 2 mph 2 mph 75% 0 in 0 W/m2
05:10 53.1 °F 45.3 °F 30.2 in Calm   1 mph 75% 0 in 0 W/m2
05:15 52.9 °F 45.1 °F 30.2 in SW 0.9 mph 2 mph 75% 0 in 0 W/m2
05:20 52.7 °F 45.3 °F 30.2 in SW 2 mph 2 mph 76% 0 in 0 W/m2
05:25 52.7 °F 45.3 °F 30.2 in SW 0.9 mph 2 mph 76% 0 in 0 W/m2
05:30 52.9 °F 45.5 °F 30.2 in Calm   1 mph 76% 0 in 0 W/m2
05:35 52.9 °F 45.5 °F 30.2 in Calm   1 mph 76% 0 in 0 W/m2
05:40 52.5 °F 45.1 °F 30.2 in SW 0.9 mph 2 mph 76% 0 in 0 W/m2
05:45 52.5 °F 45.1 °F 30.2 in Calm     76% 0 in 0 W/m2
05:50 52.3 °F 45.3 °F 30.2 in SW 0.9 mph 1 mph 77% 0 in 0 W/m2
05:55 52.3 °F 45.3 °F 30.2 in Calm   1 mph 77% 0 in 0 W/m2
06:00 52.2 °F 45.1 °F 30.2 in Calm   1 mph 77% 0 in 0 W/m2
06:06 52 °F 45.3 °F 30.2 in Calm   2 mph 78% 0 in 0 W/m2
06:11 51.6 °F 45 °F 30.2 in SW 0.9 mph 1 mph 78% 0 in 0 W/m2
06:16 51.4 °F 44.8 °F 30.2 in Calm     78% 0 in 0 W/m2
06:21 51.3 °F 45 °F 30.2 in SW 1 mph 1 mph 79% 0 in 0 W/m2
06:26 51.1 °F 44.8 °F 30.2 in Calm     79% 0 in 0 W/m2
06:31 51.1 °F 45.1 °F 30.2 in Calm     80% 0 in 0 W/m2
06:36 51.1 °F 45.1 °F 30.2 in SW 0.9 mph 1 mph 80% 0 in 0 W/m2
06:41 51.1 °F 45.1 °F 30.2 in Calm   2 mph 80% 0 in 0 W/m2
06:46 51.1 °F 45.1 °F 30.2 in SW 0.9 mph 1 mph 80% 0 in 0 W/m2
06:51 51.1 °F 44.8 °F 30.2 in Calm   2 mph 79% 0 in 0 W/m2
06:56 51.1 °F 45.1 °F 30.2 in SW 2 mph 2 mph 80% 0 in 5 W/m2
07:01 51.1 °F 44.8 °F 30.2 in Calm     79% 0 in 7 W/m2
07:06 51.1 °F 45.1 °F 30.2 in SW 0.9 mph 2 mph 80% 0 in 11 W/m2
07:11 51.1 °F 45.1 °F 30.2 in Calm     80% 0 in 12 W/m2
07:16 50.9 °F 45 °F 30.2 in SW 0.9 mph 1 mph 80% 0 in 18 W/m2
07:21 50.7 °F 44.8 °F 30.2 in Calm   1 mph 80% 0 in 21 W/m2
07:26 50.7 °F 44.8 °F 30.2 in Calm     80% 0 in 25 W/m2
07:31 50.5 °F 45 °F 30.2 in Calm   2 mph 81% 0 in 28 W/m2
07:36 50.5 °F 45 °F 30.2 in Calm     81% 0 in 33 W/m2
07:41 50.7 °F 45.1 °F 30.2 in Calm   2 mph 81% 0 in 35 W/m2
07:46 50.9 °F 45.3 °F 30.2 in Calm     81% 0 in 40 W/m2
07:51 51.1 °F 45.5 °F 30.2 in Calm   1 mph 81% 0 in 44 W/m2
07:56 51.1 °F 45.5 °F 30.2 in Calm     81% 0 in 47 W/m2
08:01 51.4 °F 45.9 °F 30.2 in SW 0.9 mph 1 mph 81% 0 in 72 W/m2
08:06 51.6 °F 46 °F 30.2 in Calm   1 mph 81% 0 in 104 W/m2
08:11 51.8 °F 46.2 °F 30.2 in Calm     81% 0 in 116 W/m2
08:16 52.2 °F 46.2 °F 30.2 in Calm   1 mph 80% 0 in 127 W/m2
08:21 52.3 °F 46 °F 30.2 in Calm   1 mph 79% 0 in 139 W/m2
08:26 52.9 °F 46.2 °F 30.2 in Calm     78% 0 in 148 W/m2
08:31 53.2 °F 45.9 °F 30.2 in SW 2 mph 2 mph 76% 0 in 162 W/m2
08:36 53.8 °F 46 °F 30.2 in SE 0.9 mph 3 mph 75% 0 in 174 W/m2
08:41 54.3 °F 46.2 °F 30.2 in SE 2 mph 2 mph 74% 0 in 190 W/m2
08:46 54.9 °F 46 °F 30.2 in Calm   2 mph 72% 0 in 199 W/m2
08:51 55 °F 46.2 °F 30.2 in Calm     72% 0 in 214 W/m2
08:56 55.6 °F 46.8 °F 30.2 in NE 2 mph 2 mph 72% 0 in 227 W/m2
09:01 55.9 °F 46.8 °F 30.2 in Calm     71% 0 in 241 W/m2
09:06 56.1 °F 46.4 °F 30.2 in NE 0.9 mph 2 mph 70% 0 in 250 W/m2
09:11 56.7 °F 46.6 °F 30.2 in ENE 0.9 mph 2 mph 69% 0 in 264 W/m2
09:17 56.8 °F 46.8 °F 30.2 in ENE 0.9 mph 1 mph 69% 0 in 272 W/m2
09:22 57.2 °F 46.8 °F 30.2 in NNE 0.9 mph 1 mph 68% 0 in 290 W/m2
09:27 57.6 °F 46.8 °F 30.2 in East 0.9 mph 2 mph 67% 0 in 299 W/m2
09:32 57.7 °F 46.9 °F 30.2 in ESE 0.9 mph 1 mph 67% 0 in 316 W/m2
09:37 58.3 °F 47.3 °F 30.2 in SE 2 mph 3 mph 67% 0 in 276 W/m2
09:42 58.6 °F 47.3 °F 30.2 in East 0.9 mph 2 mph 66% 0 in 104 W/m2
09:47 59.2 °F 46.9 °F 30.2 in NNE 0.9 mph 3 mph 64% 0 in 330 W/m2
09:52 59.4 °F 47.1 °F 30.2 in East 0.9 mph 6 mph 64% 0 in 362 W/m2
09:57 59.9 °F 47.3 °F 30.2 in East 2 mph 4 mph 63% 0 in 376 W/m2
10:02 60.4 °F 47.3 °F 30.2 in NNE 2.9 mph 4 mph 62% 0 in 385 W/m2
10:07 60.6 °F 47.1 °F 30.2 in ENE 2 mph 4 mph 61% 0 in 399 W/m2
10:12 60.6 °F 47.1 °F 30.2 in NE 2 mph 6 mph 61% 0 in 404 W/m2
10:17 60.8 °F 47.7 °F 30.2 in NE 2.9 mph 3 mph 62% 0 in 417 W/m2
10:22 61.2 °F 47.1 °F 30.2 in NE 2 mph 6 mph 60% 0 in 422 W/m2
10:27 61.7 °F 47.7 °F 30.2 in NE 4 mph 5 mph 60% 0 in 434 W/m2
10:32 62.1 °F 47.5 °F 30.2 in NE 2.9 mph 3 mph 59% 0 in 457 W/m2
10:37 62.4 °F 47.5 °F 30.2 in NE 0.9 mph 3 mph 58% 0 in 466 W/m2
10:42 62.4 °F 47.5 °F 30.2 in Calm   3 mph 58% 0 in 475 W/m2
10:47 62.6 °F 47.7 °F 30.2 in NNW 2.9 mph 4 mph 58% 0 in 487 W/m2
10:52 62.8 °F 47.8 °F 30.2 in East 0.9 mph 3 mph 58% 0 in 494 W/m2
10:57 63.1 °F 48.2 °F 30.2 in East 0.9 mph 2 mph 58% 0 in 503 W/m2
11:02 63.7 °F 48.2 °F 30.2 in ESE 2.9 mph 4 mph 57% 0 in 517 W/m2
11:07 64 °F 48.6 °F 30.2 in Calm   7 mph 57% 0 in 526 W/m2
11:12 64.8 °F 48.7 °F 30.2 in ESE 2 mph 3 mph 56% 0 in 536 W/m2
11:17 65.1 °F 49.1 °F 30.2 in ENE 0.9 mph 6 mph 56% 0 in 541 W/m2
11:22 65.3 °F 48.7 °F 30.2 in SE 2 mph 4 mph 55% 0 in 552 W/m2
11:27 65.7 °F 49.1 °F 30.2 in ENE 2.9 mph 5 mph 55% 0 in 559 W/m2
11:32 65.7 °F 48.6 °F 30.2 in SSE 2.9 mph 3 mph 54% 0 in 568 W/m2
11:37 66 °F 48.9 °F 30.2 in NE 2 mph 4 mph 54% 0 in 578 W/m2
11:43 66.4 °F 49.6 °F 30.2 in East 2.9 mph 5 mph 55% 0 in 584 W/m2
11:48 66.7 °F 49.6 °F 30.2 in NE 2 mph 3 mph 54% 0 in 592 W/m2
11:53 66.7 °F 49.6 °F 30.2 in ESE 2 mph 3 mph 54% 0 in 598 W/m2
11:58 66.9 °F 49.8 °F 30.2 in ENE 0.9 mph 4 mph 54% 0 in 605 W/m2
12:03 67.3 °F 49.6 °F 30.2 in NE 2 mph 5 mph 53% 0 in 613 W/m2
12:08 66.9 °F 50.2 °F 30.2 in NE 0.9 mph 3 mph 55% 0 in 612 W/m2
12:13 67.3 °F 50.5 °F 30.2 in NW 4 mph 5 mph 55% 0 in 621 W/m2
12:18 67.8 °F 50.5 °F 30.2 in North 0.9 mph 3 mph 54% 0 in 626 W/m2
12:23 68.4 °F 50.5 °F 30.2 in ESE 0.9 mph 5 mph 53% 0 in 628 W/m2
12:28 69.1 °F 50.7 °F 30.2 in ENE 2.9 mph 4 mph 52% 0 in 635 W/m2
12:33 68.7 °F 49.8 °F 30.2 in East 2.9 mph 4 mph 51% 0 in 638 W/m2
12:38 68.9 °F 51.1 °F 30.2 in ESE 0.9 mph 2 mph 53% 0 in 642 W/m2
12:43 69.4 °F 51.1 °F 30.2 in ENE 4 mph 4 mph 52% 0 in 647 W/m2
12:48 69.6 °F 52.2 °F 30.2 in NW 2 mph 2 mph 54% 0 in 650 W/m2
12:53 70.2 °F 51.3 °F 30.2 in SE 0.9 mph 4 mph 51% 0 in 656 W/m2
12:58 70.9 °F 50.7 °F 30.2 in ESE 2.9 mph 7 mph 49% 0 in 654 W/m2
13:03 71.1 °F 50.9 °F 30.2 in Calm   4 mph 49% 0 in 659 W/m2
13:08 71.4 °F 50.7 °F 30.2 in ENE 2 mph 7 mph 48% 0 in 659 W/m2
13:13 71.2 °F 51.1 °F 30.2 in West 0.9 mph 2 mph 49% 0 in 661 W/m2
13:18 71.4 °F 49.6 °F 30.2 in ESE 2 mph 4 mph 46% 0 in 664 W/m2
13:23 71.4 °F 50.2 °F 30.2 in NE 2 mph 5 mph 47% 0 in 663 W/m2
13:28 71.4 °F 50.7 °F 30.2 in ESE 2.9 mph 6 mph 48% 0 in 664 W/m2
13:33 72 °F 50.7 °F 30.2 in Calm   2 mph 47% 0 in 666 W/m2
13:38 72.3 °F 50.4 °F 30.2 in ENE 0.9 mph 1 mph 46% 0 in 664 W/m2
13:43 72.7 °F 50.7 °F 30.2 in Calm   4 mph 46% 0 in 666 W/m2
13:48 72.9 °F 50.4 °F 30.2 in NE 4 mph 6 mph 45% 0 in 666 W/m2
13:53 72.9 °F 50.4 °F 30.2 in ESE 2.9 mph 4 mph 45% 0 in 664 W/m2
13:58 73 °F 49.8 °F 30.2 in East 2 mph 4 mph 44% 0 in 663 W/m2
14:03 73.2 °F 50 °F 30.2 in SSW 0.9 mph 2 mph 44% 0 in 661 W/m2
14:08 73.6 °F 49.1 °F 30.2 in WSW 2 mph 3 mph 42% 0 in 659 W/m2
14:13 73.8 °F 49.3 °F 30.2 in WSW 2 mph 2 mph 42% 0 in 654 W/m2
14:18 73.8 °F 49.8 °F 30.2 in NE 2 mph 3 mph 43% 0 in 652 W/m2
14:24 73.9 °F 50 °F 30.2 in SE 2 mph 4 mph 43% 0 in 654 W/m2
14:29 74.1 °F 50.2 °F 30.2 in ENE 4 mph 5 mph 43% 0 in 649 W/m2
14:34 73.9 °F 48.7 °F 30.2 in ESE 2.9 mph 6 mph 41% 0 in 647 W/m2
14:39 73.9 °F 47.5 °F 30.2 in East 0.9 mph 3 mph 39% 0 in 640 W/m2
14:44 73.9 °F 48 °F 30.2 in East 2 mph 6 mph 40% 0 in 640 W/m2
14:49 74.1 °F 48.2 °F 30.2 in West 0.9 mph 3 mph 40% 0 in 638 W/m2
14:54 74.3 °F 49.6 °F 30.2 in ESE 6 mph 7 mph 42% 0 in 633 W/m2
14:59 74.5 °F 49.3 °F 30.2 in ESE 0.9 mph 2 mph 41% 0 in 622 W/m2
15:04 74.8 °F 48.2 °F 30.2 in NNW 2 mph 2 mph 39% 0 in 619 W/m2
15:09 75.6 °F 48.2 °F 30.2 in NNE 2 mph 2 mph 38% 0 in 624 W/m2
15:14 75.4 °F 48 °F 30.2 in East 4 mph 8 mph 38% 0 in 582 W/m2
15:19 74.8 °F 46.8 °F 30.2 in Calm   4 mph 37% 0 in 183 W/m2
15:24 74.1 °F 45.5 °F 30.2 in SE 0.9 mph 8 mph 36% 0 in 139 W/m2
15:29 73.8 °F 45.1 °F 30.2 in East 2 mph 3 mph 36% 0 in 113 W/m2
15:34 73.2 °F 44.6 °F 30.2 in East 0.9 mph 2 mph 36% 0 in 107 W/m2
15:39 73 °F 43.7 °F 30.2 in ENE 0.9 mph 2 mph 35% 0 in 304 W/m2
15:44 73 °F 43.7 °F 30.2 in East 2.9 mph 3 mph 35% 0 in 325 W/m2
15:49 73 °F 45.1 °F 30.2 in East 0.9 mph 2 mph 37% 0 in 563 W/m2
15:54 73.6 °F 45 °F 30.2 in East 0.9 mph 1 mph 36% 0 in 543 W/m2
15:59 73.9 °F 44.6 °F 30.1 in Calm   2 mph 35% 0 in 591 W/m2
16:04 74.5 °F 45 °F 30.1 in Calm   3 mph 35% 0 in 578 W/m2
16:09 74.8 °F 45.3 °F 30.1 in ESE 0.9 mph 2 mph 35% 0 in 557 W/m2
16:15 75.4 °F 47.3 °F 30.1 in SE 2.9 mph 4 mph 37% 0 in 550 W/m2
16:20 75.7 °F 46.2 °F 30.1 in ESE 2 mph 2 mph 35% 0 in 534 W/m2
16:25 76.3 °F 45.9 °F 30.1 in NE 4 mph 4 mph 34% 0 in 527 W/m2
16:30 76.3 °F 45.1 °F 30.1 in Calm   3 mph 33% 0 in 527 W/m2
16:35 76.3 °F 45.1 °F 30.1 in ESE 4.9 mph 8 mph 33% 0 in 515 W/m2
16:40 76.3 °F 45.9 °F 30.1 in ESE 0.9 mph 3 mph 34% 0 in 503 W/m2
16:45 76.5 °F 45.1 °F 30.1 in NNE 0.9 mph 8 mph 33% 0 in 475 W/m2
16:50 76.5 °F 45.1 °F 30.1 in SE 4 mph 6 mph 33% 0 in 466 W/m2
16:55 76.1 °F 44.1 °F 30.1 in NE 2.9 mph 6 mph 32% 0 in 454 W/m2
17:00 75.7 °F 45.3 °F 30.1 in East 0.9 mph 4 mph 34% 0 in 438 W/m2
17:05 75.7 °F 45.3 °F 30.1 in ESE 0.9 mph 4 mph 34% 0 in 422 W/m2
17:10 75.7 °F 45.3 °F 30.1 in Calm   3 mph 34% 0 in 404 W/m2
17:15 75.9 °F 45.5 °F 30.1 in East 0.9 mph 2 mph 34% 0 in 387 W/m2
17:20 76.5 °F 45.1 °F 30.1 in East 0.9 mph 1 mph 33% 0 in 355 W/m2
17:25 76.6 °F 44.6 °F 30.1 in SE 4 mph 4 mph 32% 0 in 348 W/m2
17:30 76.5 °F 44.4 °F 30.1 in NE 2 mph 3 mph 32% 0 in 325 W/m2
17:35 76.3 °F 45.9 °F 30.1 in ENE 2.9 mph 8 mph 34% 0 in 313 W/m2
17:40 75.9 °F 45.5 °F 30.1 in North 0.9 mph 1 mph 34% 0 in 255 W/m2
17:45 75.9 °F 45.5 °F 30.1 in NNW 0.9 mph 2 mph 34% 0 in 137 W/m2
17:50 75.9 °F 46.2 °F 30.1 in Calm   2 mph 35% 0 in 207 W/m2
17:55 75.6 °F 45.1 °F 30.1 in NNE 0.9 mph 2 mph 34% 0 in 299 W/m2
18:00 75.6 °F 45.1 °F 30.1 in Calm   1 mph 34% 0 in 287 W/m2
18:05 75.7 °F 46.9 °F 30.1 in Calm   1 mph 36% 0 in 271 W/m2
18:10 75.9 °F 46.2 °F 30.1 in SE 0.9 mph 3 mph 35% 0 in 267 W/m2
18:15 75.7 °F 45.3 °F 30.1 in East 2.9 mph 3 mph 34% 0 in 257 W/m2
18:20 75.9 °F 45.5 °F 30.1 in Calm   1 mph 34% 0 in 243 W/m2
18:25 75.9 °F 45.5 °F 30.1 in ENE 0.9 mph 4 mph 34% 0 in 225 W/m2
18:30 75.6 °F 45.1 °F 30.1 in Calm   2 mph 34% 0 in 200 W/m2
18:35 75.4 °F 44.2 °F 30.1 in West 2.9 mph 6 mph 33% 0 in 200 W/m2
18:40 75.2 °F 43.3 °F 30.1 in WNW 0.9 mph 2 mph 32% 0 in 169 W/m2
18:45 75 °F 43.2 °F 30.1 in WNW 4 mph 4 mph 32% 0 in 153 W/m2
18:50 75 °F 43.2 °F 30.1 in Calm   2 mph 32% 0 in 141 W/m2
18:56 75 °F 43.9 °F 30.1 in Calm   1 mph 33% 0 in 130 W/m2
19:01 75 °F 43.2 °F 30.1 in Calm   2 mph 32% 0 in 116 W/m2
19:06 74.8 °F 43.9 °F 30.1 in West 0.9 mph 4 mph 33% 0 in 105 W/m2
19:11 74.8 °F 46 °F 30.1 in Calm   1 mph 36% 0 in 88 W/m2
19:16 74.3 °F 44.1 °F 30.1 in Calm   3 mph 34% 0 in 81 W/m2
19:21 74.1 °F 43.9 °F 30.1 in ENE 0.9 mph 2 mph 34% 0 in 70 W/m2
19:26 74.1 °F 43.9 °F 30.1 in Calm     34% 0 in 62 W/m2
19:31 73.9 °F 47.5 °F 30.1 in NW 0.9 mph 1 mph 39% 0 in 51 W/m2
19:36 73.2 °F 48.7 °F 30.1 in Calm   2 mph 42% 0 in 44 W/m2
19:41 72.3 °F 48.6 °F 30.1 in NW 0.9 mph 2 mph 43% 0 in 33 W/m2
19:46 71.8 °F 48 °F 30.1 in Calm     43% 0 in 26 W/m2
19:51 70.9 °F 47.8 °F 30.1 in Calm   2 mph 44% 0 in 23 W/m2
19:56 70 °F 47.7 °F 30.1 in Calm     45% 0 in 19 W/m2
20:01 69.1 °F 47.5 °F 30.1 in Calm   2 mph 46% 0 in 16 W/m2
20:06 68.4 °F 47.3 °F 30.1 in Calm   1 mph 47% 0 in 12 W/m2
20:11 67.5 °F 47.7 °F 30.1 in Calm     49% 0 in 11 W/m2
20:16 66.7 °F 47.5 °F 30.1 in Calm   2 mph 50% 0 in 7 W/m2
20:21 65.8 °F 47.1 °F 30.1 in SW 2 mph 2 mph 51% 0 in 5 W/m2
20:26 65.3 °F 47.3 °F 30.1 in Calm   1 mph 52% 0 in 0 W/m2
20:31 64.6 °F 47.1 °F 30.1 in Calm   1 mph 53% 0 in 0 W/m2
20:36 64 °F 46.6 °F 30.1 in Calm     53% 0 in 0 W/m2
20:41 63.7 °F 46.8 °F 30.1 in Calm     54% 0 in 0 W/m2
20:46 63.1 °F 47.1 °F 30.1 in Calm     56% 0 in 0 W/m2
20:51 62.8 °F 47.3 °F 30.1 in Calm     57% 0 in 0 W/m2
20:56 62.2 °F 46.8 °F 30.1 in Calm     57% 0 in 0 W/m2
21:01 61.9 °F 46.9 °F 30.1 in Calm     58% 0 in 0 W/m2
21:06 61.5 °F 46.6 °F 30.1 in Calm   1 mph 58% 0 in 0 W/m2
21:11 61.2 °F 46.8 °F 30.1 in Calm     59% 0 in 0 W/m2
21:16 61 °F 46.9 °F 30.1 in Calm     60% 0 in 0 W/m2
21:21 60.6 °F 46.6 °F 30.1 in Calm     60% 0 in 0 W/m2
21:26 60.3 °F 47.1 °F 30.1 in Calm     62% 0 in 0 W/m2
21:31 60.1 °F 46.9 °F 30.1 in Calm     62% 0 in 0 W/m2
21:36 59.7 °F 47.1 °F 30.1 in Calm     63% 0 in 0 W/m2
21:41 59.4 °F 46.8 °F 30.1 in Calm     63% 0 in 0 W/m2
21:46 59.2 °F 46.6 °F 30.1 in Calm     63% 0 in 0 W/m2
21:51 59 °F 46.8 °F 30.1 in Calm     64% 0 in 0 W/m2
21:56 58.6 °F 46.6 °F 30.1 in Calm     64% 0 in 0 W/m2
22:01 58.6 °F 47.3 °F 30.1 in Calm     66% 0 in 0 W/m2
22:06 58.3 °F 46.6 °F 30.1 in Calm     65% 0 in 0 W/m2
22:11 57.9 °F 46.6 °F 30.1 in Calm     66% 0 in 0 W/m2
22:16 57.7 °F 46.4 °F 30.1 in Calm     66% 0 in 0 W/m2
22:21 57.6 °F 46.2 °F 30.1 in Calm     66% 0 in 0 W/m2
22:26 57.4 °F 46 °F 30.2 in Calm     66% 0 in 0 W/m2
22:31 57 °F 46.2 °F 30.2 in Calm     67% 0 in 0 W/m2
22:36 57 °F 46.2 °F 30.2 in Calm   1 mph 67% 0 in 0 W/m2
22:41 56.8 °F 46.4 °F 30.2 in Calm     68% 0 in 0 W/m2
22:46 56.7 °F 46.2 °F 30.2 in SW 2 mph 2 mph 68% 0 in 0 W/m2
22:51 56.7 °F 46.2 °F 30.2 in SW 0.9 mph 2 mph 68% 0 in 0 W/m2
22:56 56.7 °F 46.2 °F 30.2 in Calm   1 mph 68% 0 in 0 W/m2
23:01 56.8 °F 46.4 °F 30.2 in Calm   2 mph 68% 0 in 0 W/m2
23:06 57.6 °F 46.2 °F 30.2 in Calm   1 mph 66% 0 in 0 W/m2
23:11 58.1 °F 46.8 °F 30.2 in Calm   2 mph 66% 0 in 0 W/m2
23:16 58.3 °F 46.2 °F 30.2 in NW 2 mph 3 mph 64% 0 in 0 W/m2
23:21 58.8 °F 45.9 °F 30.2 in NW 0.9 mph 1 mph 62% 0 in 0 W/m2
23:26 59.5 °F 46.6 °F 30.2 in SW 0.9 mph 2 mph 62% 0 in 0 W/m2
23:31 59.5 °F 46.6 °F 30.2 in SW 0.9 mph 1 mph 62% 0 in 0 W/m2
23:36 59.4 °F 45.9 °F 30.2 in SSE 2 mph 2 mph 61% 0 in 0 W/m2
23:41 59.4 °F 45.9 °F 30.2 in Calm   1 mph 61% 0 in 0 W/m2
23:47 59.4 °F 45.9 °F 30.2 in Calm   1 mph 61% 0 in 0 W/m2
23:52 59.2 °F 46.2 °F 30.2 in Calm   1 mph 62% 0 in 0 W/m2
23:57 59.2 °F 45.7 °F 30.2 in WSW 2.9 mph 3 mph 61% 0 in 0 W/m2
Juneau County Weather
Compliments of Weather Underground - 2 mb